Location: Heidgraben
(53.7081°N, 9.6576°E)
Time: 10:36:01
(UTC+00:00)

Cosmos 1980 - Pass Details

Date: 05 July 2020
Orbit: 839 x 847 km, 71.0° (Epoch: 05 August)

Event Time Altitude Azimuth Distance (km) Brightness Sun altitude
Exits shadow 21:56:43 10° 189° (S) 2,424 5.6 -11.2°
Maximum altitude 22:02:06 54° 114° (ESE) 1,021 3.9 -11.5°
Drops below altitude 10° 22:07:36 10° 38° (NE) 2,469 6.6 -11.8°
Sets 22:10:05 0° 34° (NE) 3,408 7.4 -11.9°
